Погода в Васильевском

Россия / Вологодская область     60°55′45″N   46°27′51″E
В апреле 2022 года жителям России запретили посещать сайт meteo.paraplan.net по решению Генеральной прокуратуры. Аудитория сайта уменьшилась в 10 раз. Владельцы сайта не видят смысла в поддержке погодного сервера в таких условиях. Сайт будет закрыт в октябре.
темп.,
°C
ветер,
м/с
пор.,
м/с
влажн.,
%
обл.,
%
осадки,
мм/ч
давл.,
гПа
погр.,
м
25 сентября, вс
вс2500:00+8всв5139090 0.2 1010636
03:00+9всв41192100 0.5 1010630
06:00+8всв41193100 0.1 1010538
09:00+8в41093100 0.1 1011577
12:00+8в4993100 0.1 1011545
15:00+9всв3891100 0.1 1011510
18:00+8всв31095100 1.4 1011661
21:00+9всв41192100 2.7 1010783
26 сентября, пн
пн2600:00+7всв51389100 0.0 1010848
03:00+4всв51486100 0.0 1009819
06:00+4всв51382100 0.1 1009860
09:00+4в51276100 0.1 1011838
12:00+5в51171100 0.0 1012832
15:00+5в51273100 0.0 1014787
18:00+5вюв51173100 0.0 1015786
21:00+5вюв41074100 0.0 1016693
27 сентября, вт
вт2700:00+5вюв3879100 0.0 1017562
03:00+4в3681100 0.0 1018444
06:00+3вюв378480 0.0 1019357
09:00+4юв3673100 0.0 1020494
12:00+8вюв345662 0.0 1021929
15:00+8вюв3452100 0.0 10211001
18:00+4вюв2471100 0.0 102277
21:00+1вюв257645 0.0 102394
28 сентября, ср
ср2800:000вюв228216 0.0 102436
03:00−1вюв228561 0.0 102449
06:00−1в268326 0.0 1025130
09:00+4вюв36590 0.0 1026494
12:00+7вюв46475 0.0 10251179
15:00+7вюв47485 0.0 10251345
18:00+3в310691 0.0 1026262
21:00+2вюв413730 0.0 1026450
29 сентября, чт
чт2900:00+1вюв413760 0.0 1026544
03:000вюв413775 0.0 1027573
06:00−1вюв5157338 0.0 1026630
09:00+3вюв5155446 0.0 1027804
12:00+6вюв6114145 0.0 10261025
15:00+7вюв5114496 0.0 10261083
18:00+4вюв51253100 0.0 1027841
21:00+3юв51360100 0.0 1028745